User: anonymous   Login
Location: Friaudour
(46.0460°N, 1.2873°E)
Time: 12:56:15
(UTC+00:00)
Language:

Cosmos 1666 Rocket - Orbit

View from above orbital plane
View from above orbital plane
View from above satellite
View from above satellite

Ground track
Ground track

The orbit data is extracted from the following two-line orbital elements,

1 15890U 85058B   20271.90281049 +.00000071 +00000-0 +57026-5 0  9997
2 15890 082.5279 218.7990 0019669 225.5215 190.8614 14.83442827881455
Epoch (UTC): 27 September 2020 21:40:02
Eccentricity: 0.0019669
inclination: 82.5279°
perigee height: 605 km
apogee height: 632 km
right ascension of ascending node: 218.7990°
argument of perigee: 225.5215°
revolutions per day: 14.83442827
mean anomaly at epoch: 190.8614°
orbit number at epoch: 88145

The dashed part of the orbit path shows where the satellite is in the earth's shadow,  

DLR